Location: Unspecified
(46.0103°N, 0.0000°E)
Time: 03:09:51
(UTC+00:00)

NOAA 16 DEB - Visible Passes

Search period start: 05 April 2026 00:00
Search period end: 15 April 2026 00:00
Orbit: 806 x 885 km, 98.7° (Epoch: 28 March)

Date Brightness Start Highest point End Pass type
(mag) Time Alt. Az. Time Alt. Az. Time Alt. Az.
5 Apr ? 18:54:02 10° S 18:59:21 45° W 19:04:35 10° NNW visible
7 Apr ? 20:13:08 10° W 20:14:00 10° W 20:14:52 10° WNW visible
8 Apr ? 19:57:36 10° WSW 20:00:24 14° W 20:03:12 10° WNW visible
9 Apr ? 19:43:08 10° SW 19:46:51 18° W 19:50:33 10° NW visible
10 Apr ? 19:28:58 10° SW 19:33:18 24° W 19:37:37 10° NW visible
11 Apr ? 19:15:01 10° SSW 19:19:48 30° W 19:24:33 10° NW visible
